Time,TemperatureF,DewpointF,PressureIn,WindDirection,WindDirectionDegrees,WindSpeedMPH,WindSpeedGustMPH,Humidity,HourlyPrecipIn,Conditions,Clouds,dailyrainin,SoftwareType,DateUTC
2013-04-14 00:00:00,53.6,44.8,29.83,NNE,14,2.7,2.7,72,0.00,,,0.00,VWS V13.01,2013-04-14 05:00:00,
2013-04-14 00:05:00,53.6,44.8,29.83,North,11,2.7,3.1,72,0.00,,,0.00,VWS V13.01,2013-04-14 05:05:00,
2013-04-14 00:10:00,53.4,44.6,29.83,NE,53,3.1,3.1,72,0.00,,,0.00,VWS V13.01,2013-04-14 05:10:00,
2013-04-14 00:15:00,53.2,44.8,29.83,ENE,66,0.0,2.2,73,0.00,,,0.00,VWS V13.01,2013-04-14 05:15:00,
2013-04-14 00:20:00,53.0,45.0,29.83,NNE,25,2.7,3.1,74,0.00,,,0.00,VWS V13.01,2013-04-14 05:20:00,
2013-04-14 00:25:00,52.9,44.8,29.83,NNE,25,3.1,3.1,74,0.00,,,0.00,VWS V13.01,2013-04-14 05:25:00,
2013-04-14 00:30:00,52.5,44.8,29.83,ENE,63,3.1,3.1,75,0.00,,,0.00,VWS V13.01,2013-04-14 05:30:00,
2013-04-14 00:35:00,52.3,45.3,29.83,NE,52,2.7,2.7,77,0.00,,,0.00,VWS V13.01,2013-04-14 05:35:00,
2013-04-14 00:40:00,52.3,45.3,29.83,NE,52,0.0,0.0,77,0.00,,,0.00,VWS V13.01,2013-04-14 05:40:00,
2013-04-14 00:45:00,52.3,45.0,29.83,North,352,0.0,0.0,76,0.00,,,0.00,VWS V13.01,2013-04-14 05:45:00,
2013-04-14 00:50:00,52.1,44.8,29.83,North,353,0.0,0.0,76,0.00,,,0.00,VWS V13.01,2013-04-14 05:50:00,
2013-04-14 00:55:00,52.0,45.3,29.83,NNE,12,0.0,0.0,78,0.00,,,0.00,VWS V13.01,2013-04-14 05:55:00,
2013-04-14 01:00:00,51.6,44.6,29.83,NNE,29,2.2,2.2,77,0.00,,,0.00,VWS V13.01,2013-04-14 06:00:00,
2013-04-14 01:04:00,51.2,45.6,29.83,North,359,0.0,2.2,81,0.00,,,0.00,VWS V13.01,2013-04-14 06:04:00,
2013-04-14 01:09:00,52.0,45.7,29.83,North,349,2.2,2.7,79,0.00,,,0.00,VWS V13.01,2013-04-14 06:09:00,
2013-04-14 01:14:00,52.9,45.5,29.83,North,9,3.1,3.1,76,0.00,,,0.00,VWS V13.01,2013-04-14 06:14:00,
2013-04-14 01:19:00,53.4,45.0,29.83,NNE,33,2.2,2.7,73,0.00,,,0.00,VWS V13.01,2013-04-14 06:19:00,
2013-04-14 01:24:00,52.9,44.5,29.83,NE,38,2.2,2.7,73,0.00,,,0.00,VWS V13.01,2013-04-14 06:24:00,
2013-04-14 01:29:00,52.7,45.7,29.83,NE,47,2.2,2.7,77,0.00,,,0.00,VWS V13.01,2013-04-14 06:29:00,
2013-04-14 01:34:00,52.5,45.2,29.83,NE,38,2.7,3.1,76,0.00,,,0.00,VWS V13.01,2013-04-14 06:34:00,
2013-04-14 01:39:00,52.1,45.5,29.83,North,360,2.2,2.2,78,0.00,,,0.00,VWS V13.01,2013-04-14 06:39:00,
2013-04-14 01:44:00,51.6,45.6,29.80,North,353,2.2,2.2,80,0.00,,,0.00,VWS V13.01,2013-04-14 06:44:00,
2013-04-14 01:49:00,51.1,45.8,29.80,NNE,12,0.0,0.0,82,0.00,,,0.00,VWS V13.01,2013-04-14 06:49:00,
2013-04-14 01:54:00,51.1,45.8,29.80,NNE,22,0.0,0.0,82,0.00,,,0.00,VWS V13.01,2013-04-14 06:54:00,
2013-04-14 01:59:00,50.7,45.4,29.80,NNE,22,0.0,0.0,82,0.00,,,0.00,VWS V13.01,2013-04-14 06:59:00,
2013-04-14 02:04:00,50.3,45.7,29.80,NNE,22,0.0,0.0,84,0.00,,,0.00,VWS V13.01,2013-04-14 07:04:00,
2013-04-14 02:09:00,50.5,46.5,29.80,North,355,0.0,0.0,86,0.00,,,0.00,VWS V13.01,2013-04-14 07:09:00,
2013-04-14 02:14:00,50.7,46.0,29.80,NNE,31,0.0,0.0,84,0.00,,,0.00,VWS V13.01,2013-04-14 07:14:00,
2013-04-14 02:19:00,50.5,46.2,29.80,NNE,31,0.0,0.0,85,0.00,,,0.00,VWS V13.01,2013-04-14 07:19:00,
2013-04-14 02:24:00,50.3,46.0,29.80,NNE,31,0.0,0.0,85,0.00,,,0.00,VWS V13.01,2013-04-14 07:24:00,
2013-04-14 02:29:00,49.8,45.5,29.80,ENE,73,0.0,0.0,85,0.00,,,0.00,VWS V13.01,2013-04-14 07:29:00,
2013-04-14 02:34:00,49.6,45.9,29.80,ENE,73,0.0,0.0,87,0.00,,,0.00,VWS V13.01,2013-04-14 07:34:00,
2013-04-14 02:39:00,49.8,46.4,29.80,ENE,73,0.0,0.0,88,0.00,,,0.00,VWS V13.01,2013-04-14 07:39:00,
2013-04-14 02:44:00,50.3,47.2,29.80,ENE,73,0.0,0.0,89,0.00,,,0.00,VWS V13.01,2013-04-14 07:44:00,
2013-04-14 02:49:00,51.1,47.0,29.80,ENE,73,0.0,0.0,86,0.00,,,0.00,VWS V13.01,2013-04-14 07:49:00,
2013-04-14 02:54:00,51.4,46.4,29.80,ENE,73,0.0,0.0,83,0.00,,,0.00,VWS V13.01,2013-04-14 07:54:00,
2013-04-14 02:59:00,51.4,45.8,29.80,ENE,73,0.0,0.0,81,0.00,,,0.00,VWS V13.01,2013-04-14 07:59:00,
2013-04-14 03:04:00,51.1,45.8,29.80,ENE,73,0.0,0.0,82,0.00,,,0.00,VWS V13.01,2013-04-14 08:04:00,
2013-04-14 03:09:00,50.9,46.2,29.80,ENE,73,0.0,0.0,84,0.00,,,0.00,VWS V13.01,2013-04-14 08:09:00,
2013-04-14 03:14:00,50.7,45.7,29.78,ENE,73,0.0,0.0,83,0.00,,,0.00,VWS V13.01,2013-04-14 08:14:00,
2013-04-14 03:19:00,50.3,46.3,29.78,ENE,73,0.0,0.0,86,0.00,,,0.00,VWS V13.01,2013-04-14 08:19:00,
2013-04-14 03:24:00,50.3,46.6,29.78,ENE,73,0.0,0.0,87,0.00,,,0.00,VWS V13.01,2013-04-14 08:24:00,
2013-04-14 03:29:00,50.5,46.2,29.78,ENE,73,0.0,0.0,85,0.00,,,0.00,VWS V13.01,2013-04-14 08:29:00,
2013-04-14 03:34:00,50.7,45.7,29.78,ENE,73,0.0,0.0,83,0.00,,,0.00,VWS V13.01,2013-04-14 08:34:00,
2013-04-14 03:39:00,50.3,45.4,29.78,ENE,73,0.0,0.0,83,0.00,,,0.00,VWS V13.01,2013-04-14 08:39:00,
2013-04-14 03:44:00,49.8,45.8,29.78,ENE,73,0.0,0.0,86,0.00,,,0.00,VWS V13.01,2013-04-14 08:44:00,
2013-04-14 03:49:00,49.4,45.7,29.78,ENE,73,0.0,0.0,87,0.00,,,0.00,VWS V13.01,2013-04-14 08:49:00,
2013-04-14 03:54:00,48.9,45.5,29.78,ENE,73,0.0,0.0,88,0.00,,,0.00,VWS V13.01,2013-04-14 08:54:00,
2013-04-14 03:59:00,48.5,46.0,29.78,NE,51,0.0,0.0,91,0.00,,,0.00,VWS V13.01,2013-04-14 08:59:00,
2013-04-14 04:04:00,48.5,46.3,29.78,NE,51,0.0,0.0,92,0.00,,,0.00,VWS V13.01,2013-04-14 09:04:00,
2013-04-14 04:09:00,48.7,46.5,29.78,NE,50,0.0,0.0,92,0.00,,,0.00,VWS V13.01,2013-04-14 09:09:00,
2013-04-14 04:14:00,48.4,45.9,29.75,NE,50,0.0,0.0,91,0.00,,,0.00,VWS V13.01,2013-04-14 09:14:00,
2013-04-14 04:19:00,48.0,45.5,29.75,NE,50,0.0,0.0,91,0.00,,,0.00,VWS V13.01,2013-04-14 09:19:00,
2013-04-14 04:24:00,47.6,45.4,29.75,NE,50,0.0,0.0,92,0.00,,,0.00,VWS V13.01,2013-04-14 09:24:00,
2013-04-14 04:29:00,47.3,45.4,29.75,ENE,61,3.1,3.6,93,0.00,,,0.00,VWS V13.01,2013-04-14 09:29:00,
2013-04-14 04:34:00,47.6,46.6,29.75,NE,51,2.7,2.7,96,0.00,,,0.00,VWS V13.01,2013-04-14 09:34:00,
2013-04-14 04:39:00,48.0,47.2,29.75,NE,38,0.0,0.0,97,0.00,,,0.00,VWS V13.01,2013-04-14 09:39:00,
2013-04-14 04:44:00,47.6,45.7,29.75,NE,38,0.0,0.0,93,0.00,,,0.00,VWS V13.01,2013-04-14 09:44:00,
2013-04-14 04:49:00,47.3,45.1,29.75,NE,38,0.0,0.0,92,0.00,,,0.00,VWS V13.01,2013-04-14 09:49:00,
2013-04-14 04:54:00,47.3,45.6,29.75,NE,41,2.7,2.7,94,0.00,,,0.00,VWS V13.01,2013-04-14 09:54:00,
2013-04-14 04:59:00,47.3,45.9,29.78,NNE,14,2.7,3.1,95,0.00,,,0.00,VWS V13.01,2013-04-14 09:59:00,
2013-04-14 05:04:00,46.9,45.0,29.78,NNE,14,0.0,2.2,93,0.00,,,0.00,VWS V13.01,2013-04-14 10:04:00,
2013-04-14 05:09:00,46.9,45.3,29.78,North,1,0.0,0.0,94,0.00,,,0.00,VWS V13.01,2013-04-14 10:09:00,
2013-04-14 05:14:00,46.9,45.6,29.78,NNW,345,2.7,2.7,95,0.00,,,0.00,VWS V13.01,2013-04-14 10:14:00,
2013-04-14 05:19:00,47.3,45.9,29.78,NNW,347,0.0,2.2,95,0.00,,,0.00,VWS V13.01,2013-04-14 10:19:00,
2013-04-14 05:24:00,47.6,46.3,29.78,NNW,347,0.0,0.0,95,0.00,,,0.00,VWS V13.01,2013-04-14 10:24:00,
2013-04-14 05:29:00,48.0,46.4,29.78,North,7,0.0,0.0,94,0.00,,,0.00,VWS V13.01,2013-04-14 10:29:00,
2013-04-14 05:34:00,47.8,45.9,29.78,NNE,32,0.0,0.0,93,0.00,,,0.00,VWS V13.01,2013-04-14 10:34:00,
2013-04-14 05:39:00,47.8,45.9,29.78,NE,53,0.0,0.0,93,0.00,,,0.00,VWS V13.01,2013-04-14 10:39:00,
2013-04-14 05:44:00,47.5,45.3,29.75,NE,53,0.0,0.0,92,0.00,,,0.00,VWS V13.01,2013-04-14 10:44:00,
2013-04-14 05:49:00,47.3,44.8,29.75,NE,53,0.0,0.0,91,0.00,,,0.00,VWS V13.01,2013-04-14 10:49:00,
2013-04-14 05:54:00,46.9,44.7,29.75,NE,42,2.7,3.6,92,0.00,,,0.00,VWS V13.01,2013-04-14 10:54:00,
2013-04-14 05:59:00,46.7,44.8,29.75,NNE,27,2.2,2.7,93,0.00,,,0.00,VWS V13.01,2013-04-14 10:59:00,
2013-04-14 06:04:00,46.6,44.9,29.75,North,11,2.2,3.1,94,0.00,,,0.00,VWS V13.01,2013-04-14 11:04:00,
2013-04-14 06:09:00,46.7,45.7,29.75,North,8,2.7,2.7,96,0.00,,,0.00,VWS V13.01,2013-04-14 11:09:00,
2013-04-14 06:14:00,46.7,45.7,29.75,North,8,2.2,2.2,96,0.00,,,0.00,VWS V13.01,2013-04-14 11:14:00,
2013-04-14 06:19:00,46.9,45.8,29.75,North,350,2.2,2.2,96,0.00,,,0.00,VWS V13.01,2013-04-14 11:19:00,
2013-04-14 06:24:00,47.1,45.7,29.75,North,353,2.7,2.7,95,0.00,,,0.00,VWS V13.01,2013-04-14 11:24:00,
2013-04-14 06:29:00,47.5,46.1,29.75,North,353,0.0,0.0,95,0.00,,,0.00,VWS V13.01,2013-04-14 11:29:00,
2013-04-14 06:34:00,47.8,46.5,29.75,North,353,0.0,0.0,95,0.00,,,0.00,VWS V13.01,2013-04-14 11:34:00,
2013-04-14 06:39:00,47.8,45.9,29.75,NE,51,0.0,0.0,93,0.00,,,0.00,VWS V13.01,2013-04-14 11:39:00,
2013-04-14 06:44:00,48.0,46.1,29.75,NE,41,3.6,4.0,93,0.00,,,0.00,VWS V13.01,2013-04-14 11:44:00,
2013-04-14 06:49:00,48.2,45.7,29.75,North,3,2.7,2.7,91,0.00,,,0.00,VWS V13.01,2013-04-14 11:49:00,
2013-04-14 06:54:00,47.8,45.0,29.75,North,3,0.0,0.0,90,0.00,,,0.00,VWS V13.01,2013-04-14 11:54:00,
2013-04-14 06:59:00,47.6,45.4,29.75,North,351,0.0,0.0,92,0.00,,,0.00,VWS V13.01,2013-04-14 11:59:00,
2013-04-14 07:04:00,47.5,45.3,29.75,North,353,0.0,0.0,92,0.00,,,0.00,VWS V13.01,2013-04-14 12:04:00,
2013-04-14 07:09:00,47.3,44.8,29.75,North,353,0.0,0.0,91,0.00,,,0.00,VWS V13.01,2013-04-14 12:09:00,
2013-04-14 07:14:00,47.1,44.9,29.75,NNE,30,0.0,0.0,92,0.00,,,0.00,VWS V13.01,2013-04-14 12:14:00,
2013-04-14 07:19:00,47.3,45.6,29.75,ENE,68,0.0,0.0,94,0.00,,,0.00,VWS V13.01,2013-04-14 12:19:00,
2013-04-14 07:24:00,47.5,46.1,29.75,NE,46,2.7,3.1,95,0.00,,,0.00,VWS V13.01,2013-04-14 12:24:00,
2013-04-14 07:29:00,47.3,45.6,29.75,NE,41,3.1,3.1,94,0.00,,,0.00,VWS V13.01,2013-04-14 12:29:00,
2013-04-14 07:34:00,46.9,44.7,29.75,NE,44,4.0,4.0,92,0.00,,,0.00,VWS V13.01,2013-04-14 12:34:00,
2013-04-14 07:39:00,46.7,44.8,29.75,NE,49,2.7,2.7,93,0.00,,,0.00,VWS V13.01,2013-04-14 12:39:00,
2013-04-14 07:44:00,46.7,45.1,29.75,NNE,31,0.0,0.0,94,0.00,,,0.00,VWS V13.01,2013-04-14 12:44:00,
2013-04-14 07:49:00,46.6,44.9,29.75,ENE,62,2.7,2.7,94,0.00,,,0.00,VWS V13.01,2013-04-14 12:49:00,
2013-04-14 07:54:00,46.7,45.9,29.75,East,79,3.1,3.1,97,0.00,,,0.00,VWS V13.01,2013-04-14 12:54:00,
2013-04-14 07:59:00,47.1,46.3,29.75,NNE,24,0.0,2.7,97,0.00,,,0.00,VWS V13.01,2013-04-14 12:59:00,
2013-04-14 08:04:00,47.8,47.3,29.75,North,358,0.0,0.0,98,0.00,,,0.00,VWS V13.01,2013-04-14 13:04:00,
2013-04-14 08:09:00,48.9,48.6,29.75,NE,56,2.7,4.0,99,0.00,,,0.00,VWS V13.01,2013-04-14 13:09:00,
2013-04-14 08:14:00,51.1,47.6,29.72,North,360,2.2,3.1,88,0.00,,,0.00,VWS V13.01,2013-04-14 13:14:00,
2013-04-14 08:19:00,53.2,48.2,29.72,NNE,17,4.0,5.4,83,0.00,,,0.00,VWS V13.01,2013-04-14 13:19:00,
2013-04-14 08:24:00,54.7,46.9,29.72,NNE,26,3.6,3.6,75,0.00,,,0.00,VWS V13.01,2013-04-14 13:24:00,
2013-04-14 08:29:00,55.9,48.5,29.72,NNE,29,2.7,2.7,76,0.00,,,0.00,VWS V13.01,2013-04-14 13:29:00,
2013-04-14 08:34:00,57.2,48.2,29.72,NNE,30,0.0,2.2,72,0.00,,,0.00,VWS V13.01,2013-04-14 13:34:00,
2013-04-14 08:39:00,58.3,48.2,29.72,NE,46,0.0,0.0,69,0.00,,,0.00,VWS V13.01,2013-04-14 13:39:00,
2013-04-14 08:44:00,59.3,47.6,29.72,NE,56,2.7,2.7,65,0.00,,,0.00,VWS V13.01,2013-04-14 13:44:00,
2013-04-14 08:49:00,60.1,48.3,29.72,NE,39,3.1,3.1,65,0.00,,,0.00,VWS V13.01,2013-04-14 13:49:00,
2013-04-14 08:54:00,60.6,47.5,29.72,NE,37,5.4,5.4,62,0.00,,,0.00,VWS V13.01,2013-04-14 13:54:00,
2013-04-14 08:59:00,61.1,47.2,29.72,NE,38,4.9,4.9,60,0.00,,,0.00,VWS V13.01,2013-04-14 13:59:00,
2013-04-14 09:04:00,61.5,47.1,29.72,ENE,61,3.6,4.0,59,0.00,,,0.00,VWS V13.01,2013-04-14 14:04:00,
2013-04-14 09:09:00,62.0,47.6,29.72,ENE,60,3.6,5.8,59,0.00,,,0.00,VWS V13.01,2013-04-14 14:09:00,
2013-04-14 09:14:00,62.2,46.8,29.72,NNE,32,4.9,5.8,57,0.00,,,0.00,VWS V13.01,2013-04-14 14:14:00,
2013-04-14 09:19:00,62.8,46.8,29.72,NE,40,4.0,5.8,56,0.00,,,0.00,VWS V13.01,2013-04-14 14:19:00,
2013-04-14 09:24:00,62.9,46.5,29.72,NE,54,6.3,7.6,55,0.00,,,0.00,VWS V13.01,2013-04-14 14:24:00,
2013-04-14 09:29:00,63.3,46.9,29.69,East,83,2.7,4.9,55,0.00,,,0.00,VWS V13.01,2013-04-14 14:29:00,
2013-04-14 09:34:00,63.8,47.9,29.69,NE,49,4.0,4.0,56,0.00,,,0.00,VWS V13.01,2013-04-14 14:34:00,
2013-04-14 09:39:00,64.6,47.6,29.69,ENE,75,5.4,5.4,54,0.00,,,0.00,VWS V13.01,2013-04-14 14:39:00,
2013-04-14 09:44:00,64.9,47.9,29.72,NNE,29,3.6,7.2,54,0.00,,,0.00,VWS V13.01,2013-04-14 14:44:00,
2013-04-14 09:49:00,65.1,48.1,29.72,ENE,76,3.6,5.8,54,0.00,,,0.00,VWS V13.01,2013-04-14 14:49:00,
2013-04-14 09:54:00,65.3,48.2,29.72,ENE,77,2.7,4.0,54,0.00,,,0.00,VWS V13.01,2013-04-14 14:54:00,
2013-04-14 09:59:00,65.5,48.4,29.72,NE,43,3.1,4.0,54,0.00,,,0.00,VWS V13.01,2013-04-14 14:59:00,
2013-04-14 10:04:00,65.8,48.2,29.72,SE,136,2.2,2.7,53,0.00,,,0.00,VWS V13.01,2013-04-14 15:04:00,
2013-04-14 10:09:00,66.0,48.4,29.72,SE,131,6.3,6.3,53,0.00,,,0.00,VWS V13.01,2013-04-14 15:09:00,
2013-04-14 10:14:00,66.4,48.2,29.72,East,81,3.6,4.0,52,0.00,,,0.00,VWS V13.01,2013-04-14 15:14:00,
2013-04-14 10:18:00,66.7,48.6,29.72,ENE,64,2.7,3.6,52,0.00,,,0.00,VWS V13.01,2013-04-14 15:18:00,
2013-04-14 10:24:00,67.1,48.9,29.72,NNE,26,3.6,3.6,52,0.00,,,0.00,VWS V13.01,2013-04-14 15:24:00,
2013-04-14 10:29:00,67.8,49.5,29.72,NE,45,4.9,5.8,52,0.00,,,0.00,VWS V13.01,2013-04-14 15:29:00,
2013-04-14 10:33:00,68.0,49.7,29.72,ENE,68,2.2,4.9,52,0.00,,,0.00,VWS V13.01,2013-04-14 15:33:00,
2013-04-14 10:38:00,68.3,50.0,29.72,ENE,60,4.9,6.3,52,0.00,,,0.00,VWS V13.01,2013-04-14 15:38:00,
2013-04-14 10:43:00,69.1,50.7,29.72,ENE,70,3.6,5.8,52,0.00,,,0.00,VWS V13.01,2013-04-14 15:43:00,
2013-04-14 10:48:00,69.2,48.2,29.72,ESE,117,5.8,6.3,47,0.00,,,0.00,VWS V13.01,2013-04-14 15:48:00,
2013-04-14 10:53:00,68.3,47.3,29.72,ENE,76,2.7,3.6,47,0.00,,,0.00,VWS V13.01,2013-04-14 15:53:00,
2013-04-14 10:58:00,68.7,47.7,29.72,ENE,73,5.8,5.8,47,0.00,,,0.00,VWS V13.01,2013-04-14 15:58:00,
2013-04-14 11:03:00,68.7,47.7,29.72,SSE,153,5.4,8.1,47,0.00,,,0.00,VWS V13.01,2013-04-14 16:03:00,
2013-04-14 11:08:00,68.9,47.8,29.72,SE,129,5.4,6.3,47,0.00,,,0.00,VWS V13.01,2013-04-14 16:08:00,
2013-04-14 11:13:00,69.2,47.6,29.72,East,91,4.9,8.7,46,0.00,,,0.00,VWS V13.01,2013-04-14 16:13:00,
2013-04-14 11:18:00,69.4,48.3,29.72,ESE,114,5.8,5.8,47,0.00,,,0.00,VWS V13.01,2013-04-14 16:18:00,
2013-04-14 11:23:00,69.6,47.3,29.72,East,92,4.0,8.3,45,0.00,,,0.00,VWS V13.01,2013-04-14 16:23:00,
2013-04-14 11:28:00,70.0,48.2,29.72,East,84,6.3,7.6,46,0.00,,,0.00,VWS V13.01,2013-04-14 16:28:00,
2013-04-14 11:33:00,70.0,47.1,29.72,East,87,8.7,8.7,44,0.00,,,0.00,VWS V13.01,2013-04-14 16:33:00,
2013-04-14 11:38:00,70.1,47.8,29.72,ESE,109,6.3,6.3,45,0.00,,,0.00,VWS V13.01,2013-04-14 16:38:00,
2013-04-14 11:43:00,70.9,47.9,29.69,ESE,109,3.6,7.6,44,0.00,,,0.00,VWS V13.01,2013-04-14 16:43:00,
2013-04-14 11:48:00,71.2,48.2,29.69,East,94,6.3,6.3,44,0.00,,,0.00,VWS V13.01,2013-04-14 16:48:00,
2013-04-14 11:53:00,71.0,48.0,29.69,ESE,118,7.6,10.5,44,0.00,,,0.00,VWS V13.01,2013-04-14 16:53:00,
2013-04-14 11:58:00,71.0,48.7,29.69,ESE,118,5.4,8.3,45,0.00,,,0.00,VWS V13.01,2013-04-14 16:58:00,
2013-04-14 12:03:00,71.2,48.2,29.69,ESE,108,10.1,10.1,44,0.00,,,0.00,VWS V13.01,2013-04-14 17:03:00,
2013-04-14 12:08:00,71.6,48.5,29.69,East,98,5.4,10.1,44,0.00,,,0.00,VWS V13.01,2013-04-14 17:08:00,
2013-04-14 12:13:00,72.3,49.2,29.69,SE,138,5.8,6.3,44,0.00,,,0.00,VWS V13.01,2013-04-14 17:13:00,
2013-04-14 12:18:00,72.7,48.9,29.69,East,97,5.4,12.8,43,0.00,,,0.00,VWS V13.01,2013-04-14 17:18:00,
2013-04-14 12:23:00,72.3,48.6,29.69,East,84,5.4,8.7,43,0.00,,,0.00,VWS V13.01,2013-04-14 17:23:00,
2013-04-14 12:28:00,72.7,48.9,29.66,ESE,106,12.8,12.8,43,0.00,,,0.00,VWS V13.01,2013-04-14 17:28:00,
2013-04-14 12:33:00,72.7,49.5,29.66,ESE,108,8.1,8.7,44,0.00,,,0.00,VWS V13.01,2013-04-14 17:33:00,
2013-04-14 12:38:00,72.8,50.3,29.66,SSE,153,8.1,8.1,45,0.00,,,0.00,VWS V13.01,2013-04-14 17:38:00,
2013-04-14 12:43:00,72.8,49.1,29.69,SE,136,8.1,8.1,43,0.00,,,0.00,VWS V13.01,2013-04-14 17:43:00,
2013-04-14 12:48:00,73.4,48.9,29.69,ESE,123,6.3,8.7,42,0.00,,,0.00,VWS V13.01,2013-04-14 17:48:00,
2013-04-14 12:53:00,73.6,49.1,29.69,ENE,68,6.3,6.7,42,0.00,,,0.00,VWS V13.01,2013-04-14 17:53:00,
2013-04-14 12:58:00,73.9,49.4,29.66,ESE,106,7.6,10.5,42,0.00,,,0.00,VWS V13.01,2013-04-14 17:58:00,
2013-04-14 13:03:00,73.7,49.2,29.66,ESE,102,10.1,14.5,42,0.00,,,0.00,VWS V13.01,2013-04-14 18:03:00,
2013-04-14 13:08:00,74.1,49.6,29.66,ESE,120,5.8,6.3,42,0.00,,,0.00,VWS V13.01,2013-04-14 18:08:00,
2013-04-14 13:13:00,74.1,48.9,29.66,ESE,111,7.6,8.1,41,0.00,,,0.00,VWS V13.01,2013-04-14 18:13:00,
2013-04-14 13:18:00,74.3,49.7,29.66,South,178,6.3,6.3,42,0.00,,,0.00,VWS V13.01,2013-04-14 18:18:00,
2013-04-14 13:23:00,74.5,49.9,29.66,ESE,114,10.5,10.5,42,0.00,,,0.00,VWS V13.01,2013-04-14 18:23:00,
2013-04-14 13:28:00,74.3,49.1,29.66,ESE,112,11.0,11.0,41,0.00,,,0.00,VWS V13.01,2013-04-14 18:28:00,
2013-04-14 13:33:00,74.5,49.2,29.66,NE,52,9.6,9.6,41,0.00,,,0.00,VWS V13.01,2013-04-14 18:33:00,
2013-04-14 13:38:00,74.8,49.6,29.66,SE,124,8.7,8.7,41,0.00,,,0.00,VWS V13.01,2013-04-14 18:38:00,
2013-04-14 13:43:00,75.2,49.9,29.66,SE,143,6.3,6.3,41,0.00,,,0.00,VWS V13.01,2013-04-14 18:43:00,
2013-04-14 13:48:00,75.9,50.5,29.66,East,88,8.3,8.3,41,0.00,,,0.00,VWS V13.01,2013-04-14 18:48:00,
2013-04-14 13:53:00,75.0,49.7,29.66,ENE,66,8.3,8.3,41,0.00,,,0.00,VWS V13.01,2013-04-14 18:53:00,
2013-04-14 13:58:00,75.4,50.0,29.63,ESE,108,8.3,8.3,41,0.00,,,0.00,VWS V13.01,2013-04-14 18:58:00,
2013-04-14 14:04:00,75.5,50.2,29.63,ESE,120,5.4,5.4,41,0.00,,,0.00,VWS V13.01,2013-04-14 19:04:00,
2013-04-14 14:09:00,75.9,50.5,29.63,East,95,8.7,10.5,41,0.00,,,0.00,VWS V13.01,2013-04-14 19:09:00,
2013-04-14 14:14:00,75.7,50.4,29.63,SE,127,8.3,10.1,41,0.00,,,0.00,VWS V13.01,2013-04-14 19:14:00,
2013-04-14 14:19:00,75.7,50.4,29.63,East,83,11.9,11.9,41,0.00,,,0.00,VWS V13.01,2013-04-14 19:19:00,
2013-04-14 14:24:00,76.1,50.7,29.63,ESE,109,4.0,5.8,41,0.00,,,0.00,VWS V13.01,2013-04-14 19:24:00,
2013-04-14 14:29:00,76.1,50.7,29.63,ENE,69,5.4,10.5,41,0.00,,,0.00,VWS V13.01,2013-04-14 19:29:00,
2013-04-14 14:34:00,76.4,51.0,29.63,SE,131,8.1,9.6,41,0.00,,,0.00,VWS V13.01,2013-04-14 19:34:00,
2013-04-14 14:39:00,76.4,51.0,29.63,ESE,114,7.6,9.6,41,0.00,,,0.00,VWS V13.01,2013-04-14 19:39:00,
2013-04-14 14:44:00,76.4,50.3,29.63,South,177,2.7,3.1,40,0.00,,,0.00,VWS V13.01,2013-04-14 19:44:00,
2013-04-14 14:49:00,76.6,51.2,29.63,SE,143,7.6,7.6,41,0.00,,,0.00,VWS V13.01,2013-04-14 19:49:00,
2013-04-14 14:54:00,76.8,50.7,29.63,SSE,165,4.9,8.7,40,0.00,,,0.00,VWS V13.01,2013-04-14 19:54:00,
2013-04-14 14:58:00,76.8,50.7,29.63,ESE,112,3.1,12.8,40,0.00,,,0.00,VWS V13.01,2013-04-14 19:58:00,
2013-04-14 15:04:00,76.8,50.7,29.63,East,81,11.9,11.9,40,0.00,,,0.00,VWS V13.01,2013-04-14 20:04:00,
2013-04-14 15:09:00,76.8,50.7,29.63,East,89,7.6,8.3,40,0.00,,,0.00,VWS V13.01,2013-04-14 20:09:00,
2013-04-14 15:14:00,77.2,51.0,29.60,SSW,195,8.1,11.0,40,0.00,,,0.00,VWS V13.01,2013-04-14 20:14:00,
2013-04-14 15:18:00,76.8,50.7,29.60,SE,143,5.8,8.3,40,0.00,,,0.00,VWS V13.01,2013-04-14 20:18:00,
2013-04-14 15:23:00,77.2,51.0,29.60,ENE,75,5.8,6.7,40,0.00,,,0.00,VWS V13.01,2013-04-14 20:23:00,
2013-04-14 15:28:00,77.3,51.2,29.60,ESE,119,8.7,8.7,40,0.00,,,0.00,VWS V13.01,2013-04-14 20:28:00,
2013-04-14 15:33:00,77.7,51.5,29.60,SE,129,11.0,15.0,40,0.00,,,0.00,VWS V13.01,2013-04-14 20:33:00,
2013-04-14 15:38:00,77.3,51.2,29.60,SE,128,6.7,6.7,40,0.00,,,0.00,VWS V13.01,2013-04-14 20:38:00,
2013-04-14 15:43:00,77.2,51.0,29.57,East,83,8.7,13.2,40,0.00,,,0.00,VWS V13.01,2013-04-14 20:43:00,
2013-04-14 15:48:00,77.2,51.0,29.57,ESE,103,11.0,11.4,40,0.00,,,0.00,VWS V13.01,2013-04-14 20:48:00,
2013-04-14 15:53:00,77.3,51.2,29.57,SE,132,6.3,6.3,40,0.00,,,0.00,VWS V13.01,2013-04-14 20:53:00,
2013-04-14 15:58:00,77.7,51.5,29.57,East,89,8.1,8.1,40,0.00,,,0.00,VWS V13.01,2013-04-14 20:58:00,
2013-04-14 16:03:00,77.9,51.6,29.57,East,97,4.0,7.2,40,0.00,,,0.00,VWS V13.01,2013-04-14 21:03:00,
2013-04-14 16:08:00,77.7,51.5,29.57,ENE,67,6.3,6.7,40,0.00,,,0.00,VWS V13.01,2013-04-14 21:08:00,
2013-04-14 16:13:00,77.5,51.3,29.57,East,90,6.3,15.0,40,0.00,,,0.00,VWS V13.01,2013-04-14 21:13:00,
2013-04-14 16:18:00,77.3,51.2,29.57,East,84,10.5,14.5,40,0.00,,,0.00,VWS V13.01,2013-04-14 21:18:00,
2013-04-14 16:23:00,77.3,51.2,29.57,East,95,8.1,12.3,40,0.00,,,0.00,VWS V13.01,2013-04-14 21:23:00,
2013-04-14 16:28:00,77.7,51.5,29.57,ESE,105,7.6,11.0,40,0.00,,,0.00,VWS V13.01,2013-04-14 21:28:00,
2013-04-14 16:34:00,77.5,51.3,29.57,SSE,147,8.3,13.2,40,0.00,,,0.00,VWS V13.01,2013-04-14 21:34:00,
2013-04-14 16:39:00,77.5,51.3,29.57,ESE,123,5.4,6.3,40,0.00,,,0.00,VWS V13.01,2013-04-14 21:39:00,
2013-04-14 16:44:00,77.5,51.3,29.57,ESE,117,10.5,11.0,40,0.00,,,0.00,VWS V13.01,2013-04-14 21:44:00,
2013-04-14 16:49:00,77.5,51.3,29.57,East,92,13.2,13.2,40,0.00,,,0.00,VWS V13.01,2013-04-14 21:49:00,
2013-04-14 16:54:00,77.5,51.3,29.57,ESE,121,5.8,10.5,40,0.00,,,0.00,VWS V13.01,2013-04-14 21:54:00,
2013-04-14 16:59:00,77.5,51.3,29.57,ESE,102,8.3,8.3,40,0.00,,,0.00,VWS V13.01,2013-04-14 21:59:00,
2013-04-14 17:04:00,77.7,51.5,29.57,East,99,9.2,10.5,40,0.00,,,0.00,VWS V13.01,2013-04-14 22:04:00,
2013-04-14 17:09:00,77.5,51.3,29.57,SSE,158,7.6,7.6,40,0.00,,,0.00,VWS V13.01,2013-04-14 22:09:00,
2013-04-14 17:14:00,77.5,51.3,29.57,SSE,150,6.3,6.3,40,0.00,,,0.00,VWS V13.01,2013-04-14 22:14:00,
2013-04-14 17:19:00,77.5,51.3,29.57,East,99,7.6,8.3,40,0.00,,,0.00,VWS V13.01,2013-04-14 22:19:00,
2013-04-14 17:24:00,77.5,51.3,29.57,SE,125,10.5,11.0,40,0.00,,,0.00,VWS V13.01,2013-04-14 22:24:00,
2013-04-14 17:29:00,77.5,51.3,29.57,SSE,147,5.4,8.1,40,0.00,,,0.00,VWS V13.01,2013-04-14 22:29:00,
2013-04-14 17:34:00,77.7,51.5,29.57,SE,128,8.7,10.5,40,0.00,,,0.00,VWS V13.01,2013-04-14 22:34:00,
2013-04-14 17:39:00,77.5,51.3,29.57,SE,129,8.3,8.7,40,0.00,,,0.00,VWS V13.01,2013-04-14 22:39:00,
2013-04-14 17:44:00,77.3,51.2,29.57,SE,143,5.8,10.1,40,0.00,,,0.00,VWS V13.01,2013-04-14 22:44:00,
2013-04-14 17:49:00,77.2,51.0,29.57,ESE,117,6.3,10.1,40,0.00,,,0.00,VWS V13.01,2013-04-14 22:49:00,
2013-04-14 17:54:00,77.0,50.8,29.57,SSE,153,5.8,8.3,40,0.00,,,0.00,VWS V13.01,2013-04-14 22:54:00,
2013-04-14 17:59:00,77.0,50.8,29.57,ESE,110,3.1,6.3,40,0.00,,,0.00,VWS V13.01,2013-04-14 22:59:00,
2013-04-14 18:04:00,77.0,50.8,29.57,SSE,162,4.0,8.7,40,0.00,,,0.00,VWS V13.01,2013-04-14 23:04:00,
2013-04-14 18:09:00,76.8,50.7,29.57,ESE,120,8.3,9.6,40,0.00,,,0.00,VWS V13.01,2013-04-14 23:09:00,
2013-04-14 18:14:00,76.6,50.5,29.57,SSE,150,4.0,7.6,40,0.00,,,0.00,VWS V13.01,2013-04-14 23:14:00,
2013-04-14 18:19:00,76.6,50.5,29.57,SE,127,6.3,6.3,40,0.00,,,0.00,VWS V13.01,2013-04-14 23:19:00,
2013-04-14 18:24:00,76.6,50.5,29.57,SE,143,5.8,8.7,40,0.00,,,0.00,VWS V13.01,2013-04-14 23:24:00,
2013-04-14 18:29:00,76.3,50.2,29.57,South,172,7.6,12.3,40,0.00,,,0.00,VWS V13.01,2013-04-14 23:29:00,
2013-04-14 18:34:00,76.1,50.0,29.57,SE,133,5.8,8.1,40,0.00,,,0.00,VWS V13.01,2013-04-14 23:34:00,
2013-04-14 18:39:00,76.1,50.0,29.57,SSE,150,4.5,8.1,40,0.00,,,0.00,VWS V13.01,2013-04-14 23:39:00,
2013-04-14 18:44:00,75.9,49.9,29.60,SE,128,4.0,6.3,40,0.00,,,0.00,VWS V13.01,2013-04-14 23:44:00,
2013-04-14 18:49:00,75.7,49.7,29.60,East,98,5.4,8.1,40,0.00,,,0.00,VWS V13.01,2013-04-14 23:49:00,
2013-04-14 18:54:00,75.5,49.5,29.60,ENE,75,5.4,6.3,40,0.00,,,0.00,VWS V13.01,2013-04-14 23:54:00,
2013-04-14 18:59:00,75.4,49.4,29.57,SE,125,4.9,5.4,40,0.00,,,0.00,VWS V13.01,2013-04-14 23:59:00,
2013-04-14 19:04:00,75.2,49.2,29.57,ESE,110,4.0,4.9,40,0.00,,,0.00,VWS V13.01,2013-04-15 00:04:00,
2013-04-14 19:09:00,74.8,49.6,29.57,ESE,111,3.1,4.5,41,0.00,,,0.00,VWS V13.01,2013-04-15 00:09:00,
2013-04-14 19:14:00,74.6,49.4,29.60,ESE,112,5.8,6.3,41,0.00,,,0.00,VWS V13.01,2013-04-15 00:14:00,
2013-04-14 19:19:00,74.5,49.2,29.60,ESE,112,6.3,9.2,41,0.00,,,0.00,VWS V13.01,2013-04-15 00:19:00,
2013-04-14 19:24:00,74.3,49.1,29.60,SE,126,5.8,5.8,41,0.00,,,0.00,VWS V13.01,2013-04-15 00:24:00,
2013-04-14 19:29:00,74.1,48.9,29.60,ESE,120,4.0,4.0,41,0.00,,,0.00,VWS V13.01,2013-04-15 00:29:00,
2013-04-14 19:34:00,73.7,48.6,29.60,ESE,116,4.0,4.0,41,0.00,,,0.00,VWS V13.01,2013-04-15 00:34:00,
2013-04-14 19:39:00,73.4,48.3,29.60,ESE,123,3.6,3.6,41,0.00,,,0.00,VWS V13.01,2013-04-15 00:39:00,
2013-04-14 19:44:00,73.0,48.0,29.60,ESE,102,3.1,3.1,41,0.00,,,0.00,VWS V13.01,2013-04-15 00:44:00,
2013-04-14 19:49:00,72.8,47.8,29.60,ESE,114,2.7,5.4,41,0.00,,,0.00,VWS V13.01,2013-04-15 00:49:00,
2013-04-14 19:54:00,72.5,47.5,29.60,East,80,3.1,4.9,41,0.00,,,0.00,VWS V13.01,2013-04-15 00:54:00,
2013-04-14 19:59:00,72.1,47.8,29.60,East,93,3.6,4.0,42,0.00,,,0.00,VWS V13.01,2013-04-15 00:59:00,
2013-04-14 20:04:00,71.8,47.5,29.60,ESE,103,2.7,3.6,42,0.00,,,0.00,VWS V13.01,2013-04-15 01:04:00,
2013-04-14 20:09:00,71.4,47.1,29.60,East,91,3.1,3.6,42,0.00,,,0.00,VWS V13.01,2013-04-15 01:09:00,
2013-04-14 20:14:00,71.0,47.4,29.60,ENE,66,3.1,3.1,43,0.00,,,0.00,VWS V13.01,2013-04-15 01:14:00,
2013-04-14 20:19:00,70.5,47.6,29.60,ENE,73,2.7,3.1,44,0.00,,,0.00,VWS V13.01,2013-04-15 01:19:00,
2013-04-14 20:24:00,70.1,47.2,29.60,East,93,3.6,3.6,44,0.00,,,0.00,VWS V13.01,2013-04-15 01:24:00,
2013-04-14 20:29:00,70.0,47.7,29.63,East,84,3.6,3.6,45,0.00,,,0.00,VWS V13.01,2013-04-15 01:29:00,
2013-04-14 20:34:00,69.6,47.3,29.63,East,100,2.7,4.0,45,0.00,,,0.00,VWS V13.01,2013-04-15 01:34:00,
2013-04-14 20:39:00,69.4,47.8,29.63,ESE,107,0.0,0.0,46,0.00,,,0.00,VWS V13.01,2013-04-15 01:39:00,
2013-04-14 20:44:00,69.1,48.0,29.63,SE,138,2.2,2.2,47,0.00,,,0.00,VWS V13.01,2013-04-15 01:44:00,
2013-04-14 20:49:00,68.7,48.2,29.63,SE,134,0.0,0.0,48,0.00,,,0.00,VWS V13.01,2013-04-15 01:49:00,
2013-04-14 20:54:00,68.2,48.3,29.63,ESE,121,3.1,3.1,49,0.00,,,0.00,VWS V13.01,2013-04-15 01:54:00,
2013-04-14 20:59:00,67.8,48.5,29.66,East,84,4.0,4.0,50,0.00,,,0.00,VWS V13.01,2013-04-15 01:59:00,
2013-04-14 21:04:00,67.6,48.9,29.66,East,90,0.0,0.0,51,0.00,,,0.00,VWS V13.01,2013-04-15 02:04:00,
2013-04-14 21:09:00,67.6,49.4,29.66,East,91,0.0,0.0,52,0.00,,,0.00,VWS V13.01,2013-04-15 02:09:00,
2013-04-14 21:14:00,66.7,49.1,29.66,East,91,0.0,0.0,53,0.00,,,0.00,VWS V13.01,2013-04-15 02:14:00,
2013-04-14 21:19:00,65.8,48.2,29.66,East,95,2.2,3.1,53,0.00,,,0.00,VWS V13.01,2013-04-15 02:19:00,
2013-04-14 21:24:00,65.8,48.7,29.66,East,101,0.0,0.0,54,0.00,,,0.00,VWS V13.01,2013-04-15 02:24:00,
2013-04-14 21:29:00,66.2,48.6,29.66,ESE,107,2.2,2.2,53,0.00,,,0.00,VWS V13.01,2013-04-15 02:29:00,
2013-04-14 21:34:00,66.4,48.7,29.66,East,101,2.2,2.2,53,0.00,,,0.00,VWS V13.01,2013-04-15 02:34:00,
2013-04-14 21:39:00,66.0,48.4,29.66,NE,41,3.1,3.1,53,0.00,,,0.00,VWS V13.01,2013-04-15 02:39:00,
2013-04-14 21:44:00,65.3,48.7,29.69,NE,53,0.0,0.0,55,0.00,,,0.00,VWS V13.01,2013-04-15 02:44:00,
2013-04-14 21:49:00,64.6,48.5,29.69,NE,38,0.0,0.0,56,0.00,,,0.00,VWS V13.01,2013-04-15 02:49:00,
2013-04-14 21:54:00,63.5,48.9,29.69,ENE,67,0.0,0.0,59,0.00,,,0.00,VWS V13.01,2013-04-15 02:54:00,
2013-04-14 21:59:00,62.4,48.8,29.69,NNE,12,2.7,2.7,61,0.00,,,0.00,VWS V13.01,2013-04-15 02:59:00,
2013-04-14 22:04:00,61.3,49.0,29.69,North,357,2.7,2.7,64,0.00,,,0.00,VWS V13.01,2013-04-15 03:04:00,
2013-04-14 22:09:00,60.4,49.4,29.69,North,357,2.7,2.7,67,0.00,,,0.00,VWS V13.01,2013-04-15 03:09:00,
2013-04-14 22:14:00,59.7,48.7,29.69,North,357,0.0,2.2,67,0.00,,,0.00,VWS V13.01,2013-04-15 03:14:00,
2013-04-14 22:19:00,59.3,48.4,29.69,North,357,0.0,0.0,67,0.00,,,0.00,VWS V13.01,2013-04-15 03:19:00,
2013-04-14 22:24:00,59.3,48.4,29.69,North,357,0.0,0.0,67,0.00,,,0.00,VWS V13.01,2013-04-15 03:24:00,
2013-04-14 22:29:00,59.3,48.4,29.69,North,2,0.0,0.0,67,0.00,,,0.00,VWS V13.01,2013-04-15 03:29:00,
2013-04-14 22:34:00,59.3,48.8,29.69,NNE,27,0.0,0.0,68,0.00,,,0.00,VWS V13.01,2013-04-15 03:34:00,
2013-04-14 22:39:00,59.2,48.6,29.69,North,10,0.0,0.0,68,0.00,,,0.00,VWS V13.01,2013-04-15 03:39:00,
2013-04-14 22:44:00,58.8,48.7,29.69,North,3,0.0,0.0,69,0.00,,,0.00,VWS V13.01,2013-04-15 03:44:00,
2013-04-14 22:49:00,58.6,49.3,29.69,North,3,0.0,0.0,71,0.00,,,0.00,VWS V13.01,2013-04-15 03:49:00,
2013-04-14 22:54:00,58.6,49.3,29.69,North,3,0.0,0.0,71,0.00,,,0.00,VWS V13.01,2013-04-15 03:54:00,
2013-04-14 22:59:00,59.0,49.6,29.69,North,3,0.0,0.0,71,0.00,,,0.00,VWS V13.01,2013-04-15 03:59:00,
2013-04-14 23:00:00,59.0,49.2,29.69,North,3,0.0,0.0,70,0.00,,,0.00,VWS V13.01,2013-04-15 04:00:00,
2013-04-14 23:05:00,59.3,49.6,29.69,North,3,0.0,0.0,70,0.00,,,0.00,VWS V13.01,2013-04-15 04:05:00,
2013-04-14 23:10:00,59.5,49.7,29.69,North,357,0.0,0.0,70,0.00,,,0.00,VWS V13.01,2013-04-15 04:10:00,
2013-04-14 23:15:00,59.5,50.1,29.69,NNE,23,3.6,3.6,71,0.00,,,0.00,VWS V13.01,2013-04-15 04:15:00,
2013-04-14 23:20:00,59.7,50.3,29.69,NNE,23,2.7,3.1,71,0.00,,,0.00,VWS V13.01,2013-04-15 04:20:00,
2013-04-14 23:25:00,59.9,50.8,29.69,NE,55,3.1,3.1,72,0.00,,,0.00,VWS V13.01,2013-04-15 04:25:00,
2013-04-14 23:30:00,60.4,51.4,29.69,NE,42,3.1,3.1,72,0.00,,,0.00,VWS V13.01,2013-04-15 04:30:00,
2013-04-14 23:35:00,61.3,51.1,29.69,NNE,26,2.2,3.6,69,0.00,,,0.00,VWS V13.01,2013-04-15 04:35:00,
2013-04-14 23:40:00,61.3,51.1,29.69,ENE,60,3.1,3.6,69,0.00,,,0.00,VWS V13.01,2013-04-15 04:40:00,
2013-04-14 23:45:00,61.7,51.8,29.69,ENE,59,3.1,3.6,70,0.00,,,0.00,VWS V13.01,2013-04-15 04:45:00,
2013-04-14 23:50:00,62.2,52.3,29.69,East,81,5.8,6.3,70,0.00,,,0.00,VWS V13.01,2013-04-15 04:50:00,
2013-04-14 23:55:00,63.1,52.4,29.69,East,81,5.4,5.8,68,0.00,,,0.00,VWS V13.01,2013-04-15 04:55:00,